• în România
  • Lista ţărilor
  • Pe 7 zile
  • Temperatura apei
  • Hartă satelitară
  • Meteo pe hartă
  • Widget-uri
  • user-avatar
    Intrare

    Meteo pe oră la Natitingou

    Astăzi, 21 Iunie, Joi

    Timp Temperatura Precipitaţii Vânt Presiune Umiditate
    00:00 +25°C° 0 mm 3 m/s 718 mmHg 84%
    01:00 +25°C° 2,1 mm 3 m/s 718 mmHg 85%
    02:00 +25°C° 2,1 mm 3 m/s 718 mmHg 86%
    03:00 +25°C° 2,1 mm 3 m/s 718 mmHg 87%
    04:00 +24°C° 2 mm 3 m/s 718 mmHg 88%
    05:00 +24°C° 2 mm 3 m/s 718 mmHg 90%
    06:00 +24°C° 0 mm 3 m/s 718 mmHg 92%
    07:00 +23°C° 1,2 mm 4 m/s 719 mmHg 90%
    08:00 +25°C° 1,2 mm 4 m/s 719 mmHg 88%
    09:00 +25°C° 1,2 mm 4 m/s 719 mmHg 86%
    10:00 +25°C° 1,8 mm 4 m/s 719 mmHg 86%
    11:00 +25°C° 1,8 mm 4 m/s 719 mmHg 86%
    12:00 +26°C° 0 mm 3 m/s 719 mmHg 85%
    13:00 +26°C° 1,3 mm 3 m/s 719 mmHg 85%
    14:00 +26°C° 1,3 mm 2 m/s 719 mmHg 84%
    15:00 +26°C° 1,3 mm 2 m/s 719 mmHg 83%
    16:00 +26°C° 0,4 mm 2 m/s 718 mmHg 84%
    17:00 +26°C° 0,4 mm 1 m/s 718 mmHg 85%
    18:00 +26°C° 0,4 mm 1 m/s 718 mmHg 87%
    19:00 +25°C° 0 mm 1 m/s 718 mmHg 88%
    20:00 +25°C° 0 mm 2 m/s 719 mmHg 90%
    21:00 +24°C° 0 mm 2 m/s 719 mmHg 92%
    22:00 +24°C° 0 mm 2 m/s 719 mmHg 92%
    23:00 +23°C° 0 mm 2 m/s 719 mmHg 92%

    Mâine, 22 Iunie, Vineri

    Timp Temperatura Precipitaţii Vânt Presiune Umiditate
    00:00 +23°C° 0 mm 2 m/s 719 mmHg 93%
    01:00 +23°C° 0 mm 2 m/s 719 mmHg 93%
    02:00 +23°C° 0 mm 1 m/s 719 mmHg 93%
    03:00 +22°C° 0 mm 1 m/s 719 mmHg 94%
    04:00 +23°C° 0 mm 2 m/s 719 mmHg 93%
    05:00 +23°C° 0 mm 2 m/s 719 mmHg 92%
    06:00 +23°C° 0 mm 2 m/s 719 mmHg 91%
    07:00 +24°C° 0 mm 3 m/s 719 mmHg 84%
    08:00 +26°C° 0 mm 3 m/s 720 mmHg 76%
    09:00 +28°C° 0 mm 3 m/s 720 mmHg 69%
    10:00 +29°C° 0 mm 3 m/s 720 mmHg 63%
    11:00 +31°C° 0 mm 3 m/s 720 mmHg 56%
    12:00 +33°C° 0 mm 3 m/s 719 mmHg 50%
    13:00 +34°C° 0 mm 3 m/s 719 mmHg 50%
    14:00 +34°C° 0 mm 3 m/s 718 mmHg 50%
    15:00 +34°C° 0 mm 3 m/s 717 mmHg 49%
    16:00 +33°C° 0 mm 3 m/s 717 mmHg 53%
    17:00 +31°C° 0 mm 2 m/s 717 mmHg 57%
    18:00 +30°C° 0 mm 2 m/s 718 mmHg 62%
    19:00 +29°C° 0,1 mm 2 m/s 718 mmHg 65%
    20:00 +28°C° 0,1 mm 2 m/s 719 mmHg 69%
    21:00 +27°C° 0,1 mm 2 m/s 719 mmHg 73%
    22:00 +26°C° 0,4 mm 2 m/s 720 mmHg 77%
    23:00 +25°C° 0,4 mm 3 m/s 720 mmHg 81%

    Poimâine, 23 Iunie, Sâmbătă

    Timp Temperatura Precipitaţii Vânt Presiune Umiditate
    00:00 +25°C° 0,4 mm 3 m/s 720 mmHg 85%
    01:00 +25°C° 0 mm 3 m/s 720 mmHg 85%
    02:00 +24°C° 0 mm 3 m/s 719 mmHg 86%
    03:00 +23°C° 0 mm 4 m/s 719 mmHg 87%
    04:00 +23°C° 0 mm 4 m/s 719 mmHg 87%
    05:00 +23°C° 0 mm 4 m/s 719 mmHg 87%
    06:00 +24°C° 0 mm 3 m/s 719 mmHg 86%
    07:00 +23°C° 0 mm 4 m/s 720 mmHg 83%
    08:00 +25°C° 0 mm 4 m/s 720 mmHg 80%
    09:00 +25°C° 0 mm 4 m/s 721 mmHg 78%
    10:00 +27°C° 0 mm 4 m/s 720 mmHg 73%
    11:00 +28°C° 0 mm 4 m/s 720 mmHg 68%
    12:00 +29°C° 0 mm 3 m/s 720 mmHg 64%
    13:00 +30°C° 0 mm 3 m/s 719 mmHg 60%
    14:00 +31°C° 0 mm 3 m/s 718 mmHg 55%
    15:00 +33°C° 0 mm 3 m/s 718 mmHg 51%
    16:00 +31°C° 0 mm 2 m/s 718 mmHg 55%
    17:00 +30°C° 0 mm 2 m/s 717 mmHg 58%
    18:00 +29°C° 0 mm 2 m/s 717 mmHg 62%
    19:00 +28°C° 0,9 mm 2 m/s 718 mmHg 68%
    20:00 +27°C° 0,9 mm 2 m/s 719 mmHg 73%
    21:00 +26°C° 0,9 mm 2 m/s 719 mmHg 78%
    22:00 +26°C° 0,8 mm 2 m/s 719 mmHg 81%
    23:00 +25°C° 0,8 mm 2 m/s 719 mmHg 84%

    24 Iunie, Duminică

    Timp Temperatura Precipitaţii Vânt Presiune Umiditate
    00:00 +25°C° 0,8 mm 2 m/s 719 mmHg 86%
    01:00 +24°C° 0,1 mm 2 m/s 719 mmHg 88%
    02:00 +24°C° 0,1 mm 2 m/s 718 mmHg 89%
    03:00 +24°C° 0,1 mm 2 m/s 718 mmHg 90%
    04:00 +23°C° 0,1 mm 2 m/s 718 mmHg 90%
    05:00 +22°C° 0,1 mm 3 m/s 718 mmHg 90%
    06:00 +22°C° 0,1 mm 3 m/s 718 mmHg 91%
    07:00 +24°C° 0 mm 3 m/s 719 mmHg 87%
    08:00 +25°C° 0 mm 3 m/s 719 mmHg 83%
    09:00 +26°C° 0 mm 3 m/s 720 mmHg 80%
    10:00 +26°C° 0 mm 3 m/s 719 mmHg 76%
    11:00 +27°C° 0 mm 3 m/s 719 mmHg 73%
    12:00 +28°C° 0 mm 3 m/s 719 mmHg 69%
    13:00 +29°C° 0,1 mm 3 m/s 719 mmHg 67%
    14:00 +29°C° 0,1 mm 3 m/s 718 mmHg 65%
    15:00 +30°C° 0,1 mm 3 m/s 717 mmHg 62%
    16:00 +29°C° 0,9 mm 2 m/s 717 mmHg 69%
    17:00 +27°C° 0,9 mm 1 m/s 717 mmHg 75%
    18:00 +26°C° 0,9 mm 1 m/s 717 mmHg 82%
    19:00 +26°C° 0,1 mm 1 m/s 718 mmHg 84%
    20:00 +25°C° 0,1 mm 1 m/s 718 mmHg 85%
    21:00 +25°C° 0,1 mm 1 m/s 718 mmHg 87%
    22:00 +25°C° 0,1 mm 1 m/s 718 mmHg 88%
    23:00 +24°C° 0,1 mm 1 m/s 718 mmHg 89%

    25 Iunie, Luni

    Timp Temperatura Precipitaţii Vânt Presiune Umiditate
    00:00 +24°C° 0,1 mm 1 m/s 718 mmHg 90%
    01:00 +24°C° 0,1 mm 1 m/s 718 mmHg 91%
    02:00 +23°C° 0,1 mm 1 m/s 717 mmHg 91%
    03:00 +23°C° 0,1 mm 1 m/s 717 mmHg 92%
    04:00 +23°C° 0 mm 1 m/s 717 mmHg 92%
    05:00 +23°C° 0 mm 1 m/s 718 mmHg 93%
    06:00 +23°C° 0 mm 1 m/s 718 mmHg 93%
    07:00 +24°C° 0 mm 2 m/s 719 mmHg 85%
    08:00 +26°C° 0 mm 2 m/s 720 mmHg 78%
    09:00 +28°C° 0 mm 3 m/s 720 mmHg 70%
    10:00 +29°C° 0,2 mm 2 m/s 720 mmHg 65%
    11:00 +30°C° 0,2 mm 2 m/s 720 mmHg 60%
    12:00 +31°C° 0,2 mm 2 m/s 719 mmHg 55%
    13:00 +31°C° 1 mm 2 m/s 718 mmHg 56%
    14:00 +31°C° 1 mm 2 m/s 718 mmHg 57%
    15:00 +31°C° 1 mm 1 m/s 717 mmHg 58%
    16:00 +30°C° 0,2 mm 1 m/s 717 mmHg 61%
    17:00 +29°C° 0,2 mm 1 m/s 717 mmHg 65%
    18:00 +28°C° 0,2 mm 1 m/s 717 mmHg 68%
    19:00 +28°C° 0 mm 1 m/s 718 mmHg 72%
    20:00 +27°C° 0 mm 1 m/s 718 mmHg 75%
    21:00 +26°C° 0 mm 1 m/s 719 mmHg 79%
    22:00 +25°C° 0 mm 1 m/s 719 mmHg 80%
    23:00 +25°C° 0 mm 2 m/s 719 mmHg 81%

    26 Iunie, Marţi

    Timp Temperatura Precipitaţii Vânt Presiune Umiditate
    00:00 +25°C° 0 mm 2 m/s 719 mmHg 83%
    01:00 +25°C° 0 mm 2 m/s 718 mmHg 83%
    02:00 +24°C° 0 mm 2 m/s 718 mmHg 84%
    03:00 +24°C° 0 mm 2 m/s 718 mmHg 84%
    04:00 +24°C° 0,7 mm 2 m/s 718 mmHg 85%
    05:00 +24°C° 0,7 mm 2 m/s 718 mmHg 86%
    06:00 +24°C° 0,7 mm 2 m/s 718 mmHg 87%
    07:00 +24°C° 0,1 mm 2 m/s 719 mmHg 84%
    08:00 +25°C° 0,1 mm 2 m/s 719 mmHg 80%
    09:00 +26°C° 0,1 mm 2 m/s 719 mmHg 77%
    10:00 +27°C° 1,1 mm 2 m/s 719 mmHg 74%
    11:00 +28°C° 1,1 mm 2 m/s 719 mmHg 72%
    12:00 +29°C° 1,1 mm 2 m/s 718 mmHg 70%
    13:00 +29°C° 0,3 mm 2 m/s 718 mmHg 66%
    14:00 +30°C° 0,3 mm 2 m/s 717 mmHg 62%
    15:00 +30°C° 0,3 mm 2 m/s 717 mmHg 59%
    16:00 +30°C° 0 mm 1 m/s 717 mmHg 61%
    17:00 +29°C° 0 mm 1 m/s 717 mmHg 63%
    18:00 +26°C° 0 mm 0 m/s 717 mmHg 65%
    19:00 +25°C° 0 mm 0 m/s 717 mmHg 68%
    20:00 +26°C° 0 mm 1 m/s 718 mmHg 71%
    21:00 +26°C° 0 mm 1 m/s 718 mmHg 74%
    22:00 +25°C° 0,2 mm 1 m/s 718 mmHg 76%
    23:00 +25°C° 0,2 mm 1 m/s 718 mmHg 77%
    Arată mai mult